map of FDH home
Great Circle Mapper logo
FDH - Airport
Location
City:  Friedrichshafen, Baden-Württemberg, Germany
Near (Alt.):Löwenthal
Name:Bodensee Airport Friedrichshafen
Old (Alt.):Friedrichshafen Airport
ICAO / IATA:EDNY / FDH

Details
Type:Airport (Flugplatz, Airfield)
Use:Public/Civil
Latitude:47°40'17"N (47.671317)
Longitude:9°30'41"E (9.511486)
Datum:WGS 1984
Elevation:1367 ft (417 m)
Variation:2.1°E (WMM2010 magnetic declination)
Runways:1
Longest:7729 × 148 ft (2356 × 45 m), paved

Time
Time Zone:UTC+1 (DST+2)
Local Time:

Weather
METAR:EDNY 260220Z AUTO VRB03KT 2600 BR FEW003 BKN006 OVC010 05/04 Q1017
TAF:EDNY 252300Z 2600/2624 05004KT 6000 BKN008
TEMPO 2600/2609 4000 BR BKN004
BECMG 2610/2612 SCT012
BECMG 2616/2618 BKN008
BECMG 2620/2622 4000 BR BKN004

Related Locations
Nearby:
Farthest:CHT: 12042 mi / 19380 km
Waitangi [Tuuta], Chatham Islands, NZ

Find:

   beyond  
but within

Other Information
Maps:
NOTAMs:
Links:
Sources:

  
flag of Germany
flag of Baden-Württemberg
  

Sectional Chart

Flight Planning
at skyvector.com

Satellite Image

Google Maps Satellite View

 

Copyright © 2004-2014 Karl L. Swartz. All rights reserved.
The Great Circle Mapper name and logo are trademarks of the Great Circle Mapper.
All other trademarks mentioned herein belong to their respective owners.
Please see credits for attibutions and further copyright information.

  Follow gcmap on Facebook Follow gcmap on Twitter

hCard Microformat

Geo Microformat